This demonstration page uses our WeatherBlox Daily Observations layout. Learn more.

Left ArrowRight Arrow

39.08367, -84.50855

Hourly Observations for September 17, 2015

Temp ( °F °C ) Dew Point ( °F °C ) Humidity (%) Winds ( mph kmh ) Pressure ( in mb ) Visibility ( mi km ) Precip ( " mm )
12:53 am 00:53 Clear with Mist and Fog 58 14.4 58 14.4 100 100 Calm 30.20 1023 3 5 0.00 0.00
12:55 am 00:55 Clear with Mist and Fog 58 14.4 58 14.4 100 100 Calm 30.21 1023 2 2 0.00 0.00
1:07 am 01:07 Clear with Mist and Fog 58 14.4 58 14.4 100 100 Calm 30.21 1023 3 5 0.00 0.00
1:53 am 01:53 Clear with Mist and Fog 56 13.3 56 13.3 100 100 Calm 30.20 1023 3 5 0.00 0.00
1:55 am 01:55 Clear with Mist and Fog 55 12.8 55 12.8 100 100 Calm 30.21 1023 2 2 0.00 0.00
2:07 am 02:07 Clear with Mist and Fog 57 13.9 57 13.9 100 100 NE 3 6 30.21 1023 3 5 0.00 0.00
2:53 am 02:53 Clear 57 13.9 57 13.9 100 100 NNE 3 6 30.19 1022 8 13 0.00 0.00
3:53 am 03:53 Clear 56 13.3 56 13.3 100 100 ENE 3 6 30.19 1022 7 11 0.00 0.00
4:11 am 04:11 Clear with Mist and Fog 55 12.8 55 12.8 100 100 Calm 30.21 1023 2 3 0.00 0.00
4:15 am 04:15 Mostly Clear with Mist and Fog 55 12.8 55 12.8 100 100 Calm 30.21 1023 2 2 0.00 0.00
4:26 am 04:26 Mostly Cloudy with Mist and Fog 55 13 55 13 100 100 Calm 30.21 1023 3 5 0.00 0.00
4:42 am 04:42 Cloudy 56 13.3 55 12.8 97 97 Calm 30.21 1023 8 13 0.00 0.00
4:53 am 04:53 Cloudy 55 12.8 55 12.8 100 100 Calm 30.19 1022 9 14 0.00 0.00
5:05 am 05:05 Cloudy with Mist and Fog 55 12.8 55 12.8 100 100 Calm 30.21 1023 2 3 0.00 0.00
5:19 am 05:19 Mostly Cloudy with Fog 55 12.8 55 12.8 100 100 Calm 30.21 1023 0 0 0.00 0.00
5:53 am 05:53 Mostly Cloudy with Fog 56 13.3 56 13.3 100 100 Calm 30.19 1023 0 0 0.00 0.00
6:53 am 06:53 Mostly Cloudy with Fog 57 13.9 57 13.9 100 100 ENE 3 6 30.20 1023 0 0 0.00 0.00
7:53 am 07:53 Mostly Cloudy with Fog 55 12.8 55 12.8 100 100 Calm 30.21 1023 0 0 0.00 0.00
8:19 am 08:19 Mostly Cloudy with Mist and Fog 55 12.8 55 12.8 100 100 Calm 30.21 1023 1 2 0.00 0.00
8:53 am 08:53 Mostly Cloudy with Mist and Fog 58 14.4 58 14.4 100 100 Calm 30.22 1023 4 6 0.00 0.00
9:19 am 09:19 Partly Cloudy 60 15.6 60 15.6 100 100 Calm 30.21 1023 10 16 0.00 0.00
9:53 am 09:53 Sunny 64 17.8 61 16.1 90 90 Calm 30.21 1023 10 16 0.00 0.00
10:53 am 10:53 Sunny 71 21.7 61 16.1 71 71 SSW 5 7 30.19 1022 10 16 0.00 0.00
11:53 am 11:53 Sunny 75 23.9 61 16.1 62 62 Calm 30.17 1022 10 16 0.00 0.00
12:53 pm 12:53 Mostly Sunny 77 25 58 14.4 52 52 S 5 7 30.15 1021 10 16 0.00 0.00
1:53 pm 13:53 Sunny 79 26.1 57 13.9 47 47 SSW 9 15 30.13 1020 10 16 0.00 0.00
2:53 pm 14:53 Mostly Sunny 80 26.7 58 14.4 47 47 SSE 6 9 30.10 1019 10 16 0.00 0.00
3:53 pm 15:53 Sunny 80 26.7 57 13.9 45 45 S 9 15 30.07 1018 10 16 0.00 0.00
4:53 pm 16:53 Sunny 80 26.7 57 13.9 45 45 SSW 9 15 30.06 1018 10 16 0.00 0.00
5:53 pm 17:53 Sunny 79 26.1 56 13.3 45 45 S 6 9 30.04 1017 10 16 0.00 0.00
6:53 pm 18:53 Sunny 77 25 59 15 54 54 SSE 5 7 30.04 1017 10 16 0.00 0.00
7:53 pm 19:53 Clear 68 20 61 16.1 78 78 Calm 30.03 1017 10 16 0.00 0.00
8:53 pm 20:53 Clear 63 17.2 59 15 87 87 Calm 30.04 1017 10 16 0.00 0.00
9:53 pm 21:53 Clear 61 16.1 59 15 93 93 Calm 30.05 1018 10 16 0.00 0.00
10:53 pm 22:53 Clear 60 15.6 59 15 96 96 Calm 30.04 1017 10 16 0.00 0.00
11:53 pm 23:53 Clear 60 15.6 59 15 96 96 Calm 30.03 1017 10 16 0.00 0.00

Powered by AerisWeather